Wind_Speed
3 5 4 8 9 6 5 6 7 8 12 9 9 12 14 12 7 7 9 8 9 10 11 11 15 22 27 30 28 32 33 34 41 40 39 40 41 40 36 36 39 38 36 35
4 9 10 11 7 8 6 5 8 11 14 9 14 7 8 10 8 9 10 10 9 9 8 11 18 24 27 28 30 33 33 37 34 33 35 38 37 34 34 36 35 34 36 38
2 2 3 7 7 12 7 5 5 5 10 15 12 11 9 12 9 11 11 11 10 10 11 12 20 27 27 30 28 33 32 31 30 31 32 33 32 30 33 33 33 35 36 36
1 0 3 6 3 5 8 9 8 7 6 13 20 14 10 8 8 9 12 13 11 9 8 19 23 26 28 26 31 31 27 26 29 32 29 27 29 28 30 31 31 29 27 26
3 3 7 10 6 6 8 17 5 8 7 10 16 11 14 8 9 13 14 12 11 16 20 21 25 26 25 22 22 24 24 24 25 25 24 24 23 24 22 22 20 20 20 18
3 2 5 4 3 4 3 9 3 5 6 8 13 8 10 10 7 11 11 9 8 13 15 19 22 25 23 17 18 16 20 21 23 23 23 24 23 22 21 21 21 19 18 15
3 3 7 6 6 1 2 6 7 4 5 7 6 7 16 23 24 8 7 8 8 13 13 17 21 25 19 19 15 20 21 21 19 17 18 19 21 21 23 25 24 23 22 19
4 4 8 6 2 6 7 4 4 7 5 6 13 19 21 18 12 8 7 3 1 2 5 13 20 22 16 16 21 22 21 21 19 17 17 19 23 23 23 24 26 25 27 25
8 7 4 5 5 5 3 7 5 5 8 11 14 18 18 11 7 4 5 5 10 11 12 13 13 19 20 18 23 24 23 21 20 20 21 21 24 25 24 22 24 21 22 22
2 5 12 9 7 4 6 12 11 8 7 13 16 15 15 9 6 5 6 5 15 15 10 11 17 21 24 24 24 25 25 24 23 24 23 21 20 18 20 21 21 19 19 18
10 7 8 11 5 12 13 10 12 8 5 12 13 15 10 7 7 5 7 9 16 14 14 14 17 21 23 26 26 27 27 25 25 25 24 23 20 16 16 14 17 23 20 20
4 4 2 7 8 14 10 14 17 10 7 7 8 11 5 6 7 8 8 13 19 17 21 20 20 20 20 21 25 30 27 24 23 25 24 23 26 28 20 12 8 10 14 16
5 10 9 13 12 12 11 13 14 13 10 13 14 11 12 9 11 16 16 19 16 21 23 22 27 23 19 20 24 24 26 24 23 22 20 20 20 21 25 26 25 21 19 18
8 11 4 10 6 11 13 13 12 12 14 13 13 17 17 13 18 19 20 21 22 22 25 27 32 27 22 25 30 31 30 26 24 23 23 23 22 21 19 17 17 18 13 13
9 10 9 5 6 10 10 10 11 11 12 13 18 16 17 15 15 18 22 22 28 29 29 30 35 25 31 30 34 32 31 30 30 28 24 21 19 19 17 16 15 16 16 14
13 11 6 5 7 9 10 14 11 11 11 12 14 17 20 22 24 26 29 28 27 23 28 32 29 26 32 34 35 33 30 28 27 24 22 20 19 18 16 16 15 13 11 8
7 5 9 8 8 10 13 9 10 10 11 12 15 16 20 22 26 28 30 32 35 34 32 31 29 29 31 31 33 30 28 26 25 24 23 20 19 18 16 16 14 13 12 8
7 7 8 8 8 10 12 11 12 15 14 19 23 21 23 23 17 22 25 28 34 37 33 31 30 31 31 30 29 27 27 25 24 22 20 20 19 17 16 15 13 13 11 10
12 10 10 11 11 12 11 10 16 19 20 24 26 22 25 25 24 24 26 30 29 26 25 29 31 32 31 27 27 26 26 24 22 21 20 19 19 17 16 15 14 13 10 9
12 16 19 21 21 22 17 19 20 22 21 25 26 25 25 25 25 26 29 30 26 22 25 28 29 29 26 24 24 23 22 21 20 19 18 18 18 17 16 14 13 11 9 8
12 16 18 20 21 24 23 21 23 22 24 27 27 23 22 23 22 20 22 20 22 25 26 25 26 24 22 21 21 21 21 21 20 19 18 18 17 16 14 12 10 9 7 5
14 14 17 19 21 22 23 22 23 24 24 25 23 22 24 23 23 26 25 22 21 23 25 25 23 21 20 20 20 20 19 19 18 17 17 16 14 13 11 10 10 9 7 5
18 19 20 20 20 21 25 25 25 25 24 22 22 22 21 18 14 13 14 18 23 22 23 23 21 19 18 19 19 19 18 17 16 15 13 12 11 10 9 8 7 7 6 8
19 18 18 16 18 20 19 19 21 22 23 24 24 19 16 17 19 21 22 20 19 20 21 19 18 17 16 16 15 14 14 13 12 10 10 9 8 8 7 7 7 8 10 12
16 16 15 14 15 14 16 15 18 18 19 19 18 17 15 15 17 17 18 18 16 16 16 14 13 12 12 11 11 11 11 10 10 8 8 7 7 6 6 6 8 10 12 15
14 13 13 15 13 14 14 15 14 14 15 17 17 16 16 16 16 16 15 14 14 13 13 12 12 11 10 9 9 8 8 7 7 7 7 6 5 6 8 10 12 16 18 18
14 13 14 16 18 17 17 17 19 16 14 16 17 14 15 14 14 13 12 12 11 10 10 10 10 10 7 5 6 6 6 7 7 7 7 8 8 10 14 17 18 17 16 16
Wind_Direction
179 240 258 274 274 283 290 222 246 289 288 277 257 244 242 233 241 251 253 233 209 211 205 205 201 206 211 217 210 205 206 206 213 216 218 221 226 230 231 232 234 234 235 233
212 223 246 271 263 281 273 252 262 270 265 232 260 259 260 242 228 236 251 246 235 227 199 199 201 205 211 214 208 204 206 213 215 214 215 219 224 225 225 227 229 230 229 230
250 98 360 290 215 220 237 228 238 276 315 300 275 267 248 258 225 225 234 240 241 224 211 204 203 206 208 213 205 204 206 212 210 210 211 215 218 219 221 219 220 223 227 227
206 338 210 250 295 224 230 234 235 264 279 293 282 257 241 232 234 247 241 236 230 231 235 233 223 209 210 211 209 201 204 202 203 204 202 207 212 208 209 211 210 211 217 218
190 193 308 292 241 208 195 270 226 267 315 323 323 298 272 222 221 238 245 239 232 231 233 233 217 209 196 185 191 187 184 184 192 186 182 189 198 202 206 208 201 194 194 188
135 147 238 240 5 35 138 281 339 6 316 332 331 299 289 281 241 239 239 231 227 244 226 219 211 199 178 164 167 162 172 169 182 189 189 186 190 187 179 177 164 152 141 147
198 239 272 251 270 338 94 255 297 295 270 306 298 262 291 295 288 262 253 263 206 187 196 207 195 181 158 152 152 153 161 158 165 172 177 182 170 165 159 146 138 129 123 121
181 212 265 213 149 158 222 263 250 279 269 309 302 302 307 287 284 290 288 336 163 146 137 167 172 156 133 119 139 150 150 149 150 146 154 150 145 140 140 138 131 125 123 115
195 209 235 238 242 252 241 238 277 281 296 346 309 302 308 297 315 17 16 55 73 90 81 93 121 135 110 120 139 140 135 130 127 130 134 141 142 135 130 134 125 122 121 118
136 238 254 264 277 285 246 243 255 283 354 335 301 295 302 311 333 39 60 62 91 90 80 71 112 125 128 137 139 136 122 121 125 121 119 122 126 129 130 133 132 133 131 128
259 283 308 289 14 347 325 314 265 263 350 320 302 304 298 321 353 16 67 55 82 88 83 72 86 104 126 138 143 130 126 127 123 122 121 116 107 116 131 146 163 159 161 155
239 71 331 281 340 347 337 12 354 300 307 332 348 302 317 24 19 21 38 73 80 68 84 77 72 84 114 131 142 133 116 115 119 119 117 114 109 89 82 99 135 157 154 149
306 339 292 277 270 2 333 10 5 355 17 352 354 12 40 50 30 57 49 61 62 90 77 71 80 72 100 124 132 122 112 114 111 106 100 98 95 98 97 80 85 93 100 103
350 342 339 22 331 351 354 22 14 6 20 23 18 35 52 57 49 48 51 57 65 64 77 82 77 60 81 104 104 92 88 84 83 86 90 94 99 103 108 106 102 100 98 106
346 336 304 335 12 22 11 37 35 20 23 36 42 49 50 60 58 57 61 65 70 69 66 66 73 70 82 87 89 90 92 94 100 102 100 104 107 108 112 117 122 122 120 117
324 304 347 7 21 31 38 43 47 36 38 51 57 58 67 71 69 65 62 61 65 60 57 67 60 74 90 97 92 89 89 98 101 99 100 99 97 93 93 98 104 115 123 122
345 349 354 4 30 34 54 50 62 65 63 61 65 71 77 79 74 68 66 66 65 62 60 59 60 74 86 91 91 87 88 89 93 90 88 90 90 88 93 96 96 97 93 83
42 44 46 43 45 54 54 56 66 68 76 78 72 64 66 63 65 64 66 69 67 62 57 64 74 80 82 86 88 89 89 88 87 85 90 89 89 91 91 92 91 92 92 80
49 55 58 68 66 73 68 64 68 74 71 79 78 71 69 65 64 64 66 63 61 60 52 68 76 76 76 82 86 87 87 85 82 83 86 87 84 85 86 87 85 81 75 66
63 66 67 67 63 66 66 61 69 70 70 77 78 72 67 63 65 68 67 64 57 62 68 71 74 74 76 79 82 85 86 86 86 88 89 88 86 84 82 80 77 71 61 54
64 67 69 68 65 65 67 71 73 69 70 72 75 73 73 68 65 70 70 67 53 72 76 75 73 74 75 78 80 84 86 87 86 86 85 84 84 81 76 70 61 48 37 31
61 62 64 68 70 68 63 66 71 73 73 74 75 76 74 71 72 69 66 72 72 78 77 74 72 73 76 78 80 81 82 83 84 84 82 79 74 68 58 47 39 33 31 33
68 68 68 66 70 74 69 64 64 67 68 69 70 69 69 68 66 76 73 67 81 77 74 70 67 67 71 75 78 80 82 82 81 79 75 68 61 55 50 47 43 35 19 359
63 62 69 74 79 76 71 66 70 70 73 74 78 80 84 86 76 83 93 89 82 77 73 67 67 67 69 71 72 74 75 77 75 73 68 61 53 45 41 36 21 7 351 339
62 62 61 65 69 70 73 74 71 68 73 74 76 76 86 95 99 101 93 87 80 75 73 68 64 63 64 66 67 71 75 71 63 53 40 30 29 28 21 6 350 341 337 333
66 65 65 64 66 71 79 86 79 83 88 83 86 91 98 100 100 98 93 87 81 75 69 59 52 50 54 61 70 72 62 50 38 28 28 30 15 351 342 339 335 330 327 325
70 74 72 68 76 87 94 97 94 88 96 102 97 94 97 97 94 91 83 74 66 59 51 43 38 38 50 63 57 51 33 17 8 2 354 346 341 337 333 329 327 327 326 326
Height
732 732 734 731 731 727 730 730 732 717 714 706 695 687 678 673 672 673 670 670 672 673 671 673 678 681 684 685 691 696 702 706 704 711 718 723 726 730 735 739 742 748 752 753
741 731 730 727 726 724 717 714 712 707 702 692 680 678 679 672 670 671 669 664 662 663 665 667 668 671 675 677 681 687 692 693 698 704 709 713 719 725 729 731 735 739 743 744
736 734 734 738 722 715 709 706 706 708 701 689 679 675 673 668 665 664 662 659 657 656 655 656 659 661 666 668 674 678 683 688 692 697 701 707 712 718 721 724 728 731 734 736
754 746 744 712 704 703 706 701 699 695 688 685 677 662 656 656 657 657 655 651 650 649 649 647 648 651 655 663 667 671 679 684 687 690 695 702 706 710 714 718 722 725 729 733
762 752 731 710 700 699 700 688 689 682 680 679 674 666 650 647 648 647 643 640 638 637 638 639 641 645 651 656 662 666 674 678 684 688 693 698 703 707 711 716 720 725 728 732
749 757 757 707 695 694 694 703 690 686 683 679 679 682 656 644 637 636 633 630 630 634 635 635 636 640 647 653 659 666 672 675 682 687 692 697 700 705 710 714 720 725 729 734
735 740 727 705 696 693 707 708 687 682 680 678 681 676 664 651 640 631 625 623 624 626 629 630 634 638 644 650 657 663 672 676 683 688 692 697 699 706 710 713 718 724 730 737
732 737 732 692 695 699 693 683 684 682 678 670 669 663 656 648 637 630 626 623 626 630 630 632 635 638 646 651 658 666 672 677 684 686 693 698 702 707 713 718 721 727 731 738
725 715 697 690 686 683 683 683 680 680 674 662 665 662 654 648 638 631 629 625 626 630 638 639 642 644 650 657 661 668 674 682 686 690 696 702 706 711 715 720 726 733 736 741
713 694 692 687 683 683 681 678 674 674 663 665 666 660 655 649 641 634 631 635 631 634 642 646 647 649 656 661 665 670 678 684 690 694 700 705 710 715 720 724 729 736 740 744
697 690 691 683 687 688 681 673 670 668 663 666 664 658 654 650 646 643 636 639 637 643 647 654 657 656 660 662 666 675 680 687 693 698 703 709 714 720 724 729 731 734 741 745
706 707 705 700 693 693 685 679 680 669 665 663 671 662 655 655 654 652 650 647 648 656 654 660 664 666 666 669 674 680 686 692 699 703 709 715 718 724 731 734 737 740 744 747
706 707 707 703 699 698 693 683 685 688 682 677 671 664 660 664 668 663 665 659 664 661 667 669 668 675 675 679 682 688 691 698 704 710 717 722 726 729 735 743 744 747 751 755
709 709 700 701 704 703 697 686 692 695 689 686 682 678 676 677 679 678 675 677 676 678 673 676 674 687 689 686 688 695 701 707 713 718 723 729 734 737 741 745 749 754 758 760
711 713 709 708 708 704 706 696 699 701 698 695 693 692 691 688 689 690 690 692 689 689 689 688 681 698 693 699 697 703 707 711 718 724 732 738 742 744 746 750 754 757 761 765
714 713 711 710 711 709 708 702 707 710 709 704 701 703 703 701 703 702 700 701 697 701 703 700 707 708 706 708 709 715 722 726 730 735 738 743 746 749 752 754 757 761 766 769
716 714 715 712 713 713 707 712 713 714 714 713 713 715 713 713 712 710 711 712 710 713 716 717 720 721 719 719 720 726 732 738 740 743 745 749 753 755 758 760 763 765 769 771
725 724 722 722 719 717 717 720 720 720 720 721 720 724 720 720 723 725 723 723 722 723 727 729 732 730 729 729 732 737 741 745 748 751 754 757 759 762 763 766 768 770 772 773
730 729 729 727 727 723 726 729 726 727 728 723 726 731 730 732 733 734 734 732 733 737 744 743 740 738 740 742 743 747 749 752 755 759 761 763 765 767 770 771 771 773 775 776
738 736 734 732 732 728 733 736 736 736 737 735 736 739 741 741 743 745 744 745 750 754 752 750 749 748 752 752 753 755 757 759 762 765 767 768 769 771 772 773 775 776 777 778
744 744 741 740 741 742 744 746 745 745 745 743 745 751 755 754 755 757 754 754 761 760 758 758 757 758 760 760 760 762 764 766 768 769 770 771 773 774 776 777 778 778 778 778
751 750 750 750 750 752 754 756 755 754 754 753 759 762 759 762 765 765 766 765 768 766 767 765 765 766 766 766 767 768 769 771 772 774 775 776 777 778 778 778 778 778 778 778
758 759 759 759 760 762 762 762 762 761 762 765 766 767 769 771 774 775 771 773 773 775 774 772 772 773 773 773 774 775 775 776 776 777 778 779 779 780 780 779 779 778 778 777
765 767 768 772 770 769 769 773 772 772 773 773 773 777 780 781 781 781 779 779 780 780 779 778 779 780 780 779 780 780 780 780 780 781 781 781 781 781 781 780 779 778 777 776
775 776 777 777 776 777 777 779 778 779 779 781 783 785 786 786 784 786 785 785 785 785 785 785 785 785 784 784 784 784 784 784 783 783 782 782 781 780 780 779 777 776 775 773
784 785 785 784 784 784 784 785 785 787 788 789 790 790 790 790 789 789 790 790 790 789 789 789 788 788 787 787 786 786 786 785 785 784 783 781 781 780 779 777 776 773 771 769
791 791 790 790 790 790 790 791 791 792 793 792 793 794 794 793 793 793 793 793 793 793 792 791 791 790 789 789 789 788 787 785 784 783 782 782 780 779 776 774 772 770 767 766